This is the latest recevied weather packets stored in our database for station/object WD9EKA. If no packets are shown the sender has not sent any weather packets the latest 10 day(s).
| Time | Temp. | Humidity | Pressure | Rain* | Wind** | Luminosity | Snow |
|---|---|---|---|---|---|---|---|
| 1777852506 | 17.22° C | 56% | 1005.5 hPa | 0 mm | - | - | - |
| 1777852174 | 17.22° C | 57% | 1005.7 hPa | 0 mm | - | - | - |
| 1777851814 | 17.22° C | 54% | 1005.7 hPa | 0 mm | - | - | - |
| 1777851513 | 17.22° C | 54% | 1005.9 hPa | 0 mm | - | - | - |
| 1777851193 | 17.22° C | 55% | 1006 hPa | 0 mm | - | - | - |
| 1777850873 | 17.22° C | 55% | 1006.3 hPa | 0 mm | - | - | - |
| 1777850554 | 17.22° C | 54% | 1006.4 hPa | 0 mm | - | - | - |
| 1777850249 | 17.22° C | 55% | 1006.7 hPa | 0 mm | - | - | - |
| 1777849929 | 17.22° C | 54% | 1006.7 hPa | 0 mm | - | - | - |
| 1777849609 | 17.22° C | 56% | 1006.5 hPa | 0 mm | - | - | - |
| 1777849290 | 17.78° C | 54% | 1006.2 hPa | 0 mm | - | - | - |
| 1777848970 | 17.78° C | 55% | 1006.4 hPa | 0 mm | - | - | - |
| 1777848649 | 17.78° C | 54% | 1006.6 hPa | 0 mm | - | - | - |
| 1777848010 | 17.22° C | 54% | 1007 hPa | 0 mm | - | - | - |
| 1777847374 | 17.22° C | 56% | 1006.9 hPa | 0 mm | - | - | - |
| 1777847065 | 17.22° C | 59% | 1007 hPa | 0 mm | - | - | - |
| 1777846746 | 17.22° C | 56% | 1007.1 hPa | 0 mm | - | - | - |
| 1777846425 | 17.22° C | 55% | 1006.9 hPa | 0 mm | - | - | - |
| 1777846114 | 16.67° C | 58% | 1006.9 hPa | 0 mm | - | - | - |
| 1777845753 | 16.67° C | 57% | 1007.1 hPa | 0 mm | - | - | - |
| 1777845449 | 16.67° C | 55% | 1006.7 hPa | 0 mm | - | - | - |
| 1777845130 | 16.67° C | 54% | 1006.7 hPa | 0 mm | - | - | - |
| 1777844809 | 16.67° C | 55% | 1006.6 hPa | 0 mm | - | - | - |
| 1777844489 | 16.67° C | 56% | 1006.3 hPa | 0 mm | - | - | - |
| 1777844170 | 16.67° C | 57% | 1006.6 hPa | 0 mm | - | - | - |
* Rain latest hour (hover to see other rain measurements)
** Current wind speed in m/s (hover to see current wind gust speed)